Wetterdaten: aktuell Donnerstag, 18.04.2024 19:39
Datum Zeit Temperatur Temp. 5 cm Luftfeuchte Luftdruck Regen Wind Richtung Richtung Sonnenschein ET UV Solar Taupunkt Windchill Windben
18.04.2024 19:39 4,2 C 5,0 C 85 % 1017,6 hPa 0,0 l/m 5,5 km/h (2 Bft) N-NW 329 0 min 0,000 mm 0,0 UV-I 16 W/m 1,9 C 3,0 C 6,4 km/h (2 Bft)
18.04.2024 19:38 4,3 C 5,6 C 85 % 1017,5 hPa 0,0 l/m 4,8 km/h (1 Bft) N-NW 334 0 min 0,000 mm 0,0 UV-I 16 W/m 2,0 C 3,4 C 6,4 km/h (2 Bft)
18.04.2024 19:37 4,3 C 5,6 C 85 % 1017,5 hPa 0,0 l/m 4,7 km/h (1 Bft) N-NW 334 0 min 0,000 mm 0,0 UV-I 18 W/m 2,0 C 3,4 C 6,4 km/h (2 Bft)
18.04.2024 19:36 4,4 C 5,6 C 85 % 1017,6 hPa 0,0 l/m 3,1 km/h (1 Bft) N-NW 334 0 min 0,000 mm 0,0 UV-I 19 W/m 2,1 C 4,4 C 4,8 km/h (1 Bft)
18.04.2024 19:35 4,4 C 5,6 C 85 % 1017,5 hPa 0,0 l/m 3,4 km/h (1 Bft) N-NW 334 0 min 0,000 mm 0,0 UV-I 19 W/m 2,1 C 4,4 C 4,8 km/h (1 Bft)
18.04.2024 19:34 4,5 C 5,6 C 84 % 1017,5 hPa 0,0 l/m 3,3 km/h (1 Bft) N-NW 334 0 min 0,000 mm 0,0 UV-I 21 W/m 2,0 C 4,5 C 4,8 km/h (1 Bft)
18.04.2024 19:33 4,6 C 6,1 C 85 % 1017,5 hPa 0,0 l/m 4,2 km/h (1 Bft) N-NW 334 0 min 0,000 mm 0,0 UV-I 21 W/m 2,3 C 4,6 C 4,8 km/h (1 Bft)
18.04.2024 19:32 4,6 C 6,1 C 85 % 1017,5 hPa 0,0 l/m 4,4 km/h (1 Bft) N-NW 334 0 min 0,000 mm 0,0 UV-I 25 W/m 2,3 C 4,6 C 4,8 km/h (1 Bft)
18.04.2024 19:31 4,7 C 6,1 C 85 % 1017,5 hPa 0,0 l/m 3,5 km/h (1 Bft) N-NW 334 0 min 0,000 mm 0,0 UV-I 40 W/m 2,4 C 4,7 C 4,8 km/h (1 Bft)
18.04.2024 19:30 4,8 C 6,1 C 85 % 1017,5 hPa 0,0 l/m 3,8 km/h (1 Bft) N-NW 334 0 min 0,000 mm 0,0 UV-I 42 W/m 2,5 C 4,8 C 4,8 km/h (1 Bft)
18.04.2024 19:29 4,8 C 6,1 C 85 % 1017,5 hPa 0,0 l/m 5,0 km/h (1 Bft) N-NW 334 0 min 0,000 mm 0,0 UV-I 40 W/m 2,5 C 3,9 C 6,4 km/h (2 Bft)
18.04.2024 19:28 4,8 C 6,1 C 84 % 1017,5 hPa 0,0 l/m 4,6 km/h (1 Bft) N-NW 341 0 min 0,000 mm 0,0 UV-I 47 W/m 2,3 C 4,0 C 6,4 km/h (2 Bft)
18.04.2024 19:27 4,8 C 6,1 C 84 % 1017,5 hPa 0,0 l/m 2,5 km/h (1 Bft) N 5 0 min 0,000 mm 0,0 UV-I 49 W/m 2,3 C 4,8 C 3,2 km/h (1 Bft)
18.04.2024 19:26 4,8 C 6,7 C 84 % 1017,5 hPa 0,0 l/m 2,5 km/h (1 Bft) N 5 0 min 0,000 mm 0,0 UV-I 51 W/m 2,3 C 4,8 C 3,2 km/h (1 Bft)
18.04.2024 19:25 4,8 C 6,7 C 84 % 1017,5 hPa 0,0 l/m 2,2 km/h (1 Bft) N 5 1 min 0,000 mm 0,0 UV-I 56 W/m 2,3 C 4,8 C 3,2 km/h (1 Bft)
18.04.2024 19:24 4,8 C 6,7 C 84 % 1017,5 hPa 0,0 l/m 2,2 km/h (1 Bft) N 5 1 min 0,000 mm 0,0 UV-I 60 W/m 2,3 C 4,8 C 3,2 km/h (1 Bft)
18.04.2024 19:23 4,9 C 6,7 C 84 % 1017,5 hPa 0,0 l/m 3,4 km/h (1 Bft) N 5 1 min 0,000 mm 0,0 UV-I 62 W/m 2,4 C 4,9 C 4,8 km/h (1 Bft)
18.04.2024 19:22 4,9 C 6,7 C 84 % 1017,5 hPa 0,0 l/m 3,9 km/h (1 Bft) N 5 1 min 0,000 mm 0,0 UV-I 65 W/m 2,4 C 4,9 C 4,8 km/h (1 Bft)
18.04.2024 19:21 4,9 C 6,7 C 83 % 1017,5 hPa 0,0 l/m 4,0 km/h (1 Bft) N 5 1 min 0,000 mm 0,0 UV-I 65 W/m 2,3 C 4,9 C 4,8 km/h (1 Bft)
18.04.2024 19:20 5,0 C 6,7 C 83 % 1017,5 hPa 0,0 l/m 4,1 km/h (1 Bft) N 5 0 min 0,000 mm 0,0 UV-I 60 W/m 2,4 C 5,0 C 4,8 km/h (1 Bft)
18.04.2024 19:19 5,1 C 7,2 C 82 % 1017,5 hPa 0,0 l/m 4,4 km/h (1 Bft) N 5 0 min 0,000 mm 0,0 UV-I 44 W/m 2,3 C 5,1 C 4,8 km/h (1 Bft)
18.04.2024 19:18 5,2 C 7,2 C 82 % 1017,4 hPa 0,0 l/m 3,6 km/h (1 Bft) N 5 0 min 0,000 mm 0,0 UV-I 44 W/m 2,4 C 5,2 C 4,8 km/h (1 Bft)
18.04.2024 19:17 5,3 C 7,2 C 82 % 1017,4 hPa 0,0 l/m 4,0 km/h (1 Bft) N 5 0 min 0,000 mm 0,0 UV-I 44 W/m 2,5 C 5,3 C 4,8 km/h (1 Bft)
18.04.2024 19:16 5,3 C 7,2 C 81 % 1017,5 hPa 0,0 l/m 4,1 km/h (1 Bft) N 5 1 min 0,000 mm 0,0 UV-I 83 W/m 2,3 C 5,3 C 4,8 km/h (1 Bft)
18.04.2024 19:15 5,4 C 7,2 C 79 % 1017,4 hPa 0,0 l/m 3,8 km/h (1 Bft) N 5 1 min 0,000 mm 0,0 UV-I 83 W/m 2,1 C 5,4 C 4,8 km/h (1 Bft)
18.04.2024 19:14 5,6 C 7,8 C 77 % 1017,3 hPa 0,0 l/m 4,0 km/h (1 Bft) N 5 0 min 0,000 mm 0,0 UV-I 63 W/m 1,9 C 5,6 C 4,8 km/h (1 Bft)
18.04.2024 19:13 5,6 C 7,8 C 77 % 1017,4 hPa 0,0 l/m 4,0 km/h (1 Bft) N 5 0 min 0,000 mm 0,0 UV-I 39 W/m 1,9 C 5,6 C 6,4 km/h (2 Bft)
18.04.2024 19:12 5,7 C 7,8 C 77 % 1017,4 hPa 0,0 l/m 2,3 km/h (1 Bft) NO 39 0 min 0,000 mm 0,0 UV-I 39 W/m 2,0 C 5,7 C 4,8 km/h (1 Bft)
18.04.2024 19:11 5,8 C 7,8 C 76 % 1017,3 hPa 0,0 l/m 2,0 km/h (1 Bft) NO 44 0 min 0,000 mm 0,0 UV-I 39 W/m 1,9 C 5,8 C 3,2 km/h (1 Bft)
18.04.2024 19:10 5,8 C 7,8 C 76 % 1017,3 hPa 0,0 l/m 2,1 km/h (1 Bft) NO 44 0 min 0,000 mm 0,0 UV-I 35 W/m 1,9 C 5,8 C 3,2 km/h (1 Bft)
18.04.2024 19:09 5,9 C 7,8 C 76 % 1017,3 hPa 0,0 l/m 1,3 km/h (1 Bft) NO 44 0 min 0,000 mm 0,0 UV-I 35 W/m 2,0 C 5,9 C 1,6 km/h (1 Bft)
18.04.2024 19:08 5,9 C 7,8 C 76 % 1017,3 hPa 0,0 l/m 2,4 km/h (1 Bft) NO 44 0 min 0,000 mm 0,0 UV-I 37 W/m 2,0 C 5,9 C 3,2 km/h (1 Bft)
18.04.2024 19:07 5,9 C 7,8 C 76 % 1017,3 hPa 0,0 l/m 2,7 km/h (1 Bft) NO 44 0 min 0,000 mm 0,0 UV-I 40 W/m 2,0 C 5,9 C 4,8 km/h (1 Bft)
18.04.2024 19:06 5,9 C 8,3 C 76 % 1017,2 hPa 0,0 l/m 2,6 km/h (1 Bft) NO 44 0 min 0,000 mm 0,0 UV-I 74 W/m 2,0 C 5,9 C 4,8 km/h (1 Bft)
18.04.2024 19:05 5,9 C 8,3 C 77 % 1017,2 hPa 0,0 l/m 3,1 km/h (1 Bft) NO 44 1 min 0,000 mm 0,0 UV-I 93 W/m 2,2 C 5,9 C 4,8 km/h (1 Bft)
18.04.2024 19:04 5,9 C 8,3 C 76 % 1017,2 hPa 0,0 l/m 1,5 km/h (1 Bft) NO 44 1 min 0,000 mm 0,0 UV-I 116 W/m 2,0 C 5,9 C 3,2 km/h (1 Bft)
18.04.2024 19:03 5,9 C 8,3 C 76 % 1017,2 hPa 0,0 l/m 2,0 km/h (1 Bft) NO 44 1 min 0,000 mm 0,0 UV-I 120 W/m 2,0 C 5,9 C 3,2 km/h (1 Bft)
18.04.2024 19:02 5,9 C 8,3 C 76 % 1017,2 hPa 0,0 l/m 3,2 km/h (1 Bft) NO 44 1 min 0,000 mm 0,0 UV-I 123 W/m 2,0 C 5,9 C 4,8 km/h (1 Bft)
18.04.2024 19:01 6,0 C 8,3 C 76 % 1017,2 hPa 0,0 l/m 4,1 km/h (1 Bft) NO 44 0 min 0,000 mm 0,0 UV-I 42 W/m 2,1 C 6,0 C 4,8 km/h (1 Bft)
18.04.2024 19:00 6,1 C 8,3 C 76 % 1017,2 hPa 0,0 l/m 5,3 km/h (1 Bft) NO 44 0 min 0,101 mm 0,0 UV-I 39 W/m 2,2 C 5,2 C 6,4 km/h (2 Bft)
18.04.2024 18:59 6,2 C 8,3 C 77 % 1017,2 hPa 0,0 l/m 4,6 km/h (1 Bft) NO 42 0 min 0,000 mm 0,0 UV-I 37 W/m 2,5 C 5,6 C 8,0 km/h (2 Bft)
18.04.2024 18:58 6,2 C 8,3 C 77 % 1017,1 hPa 0,0 l/m 3,0 km/h (1 Bft) NO 36 0 min 0,000 mm 0,0 UV-I 42 W/m 2,5 C 6,2 C 4,8 km/h (1 Bft)
18.04.2024 18:57 6,2 C 8,3 C 77 % 1017,1 hPa 0,0 l/m 0,0 km/h (0 Bft) N-NO 31 0 min 0,000 mm 0,0 UV-I 42 W/m 2,5 C 6,2 C 0,0 km/h (0 Bft)
18.04.2024 18:56 6,2 C 8,3 C 77 % 1017,1 hPa 0,0 l/m 0,4 km/h (0 Bft) N-NO 32 1 min 0,000 mm 0,0 UV-I 137 W/m 2,5 C 6,2 C 3,2 km/h (1 Bft)
18.04.2024 18:55 6,2 C 8,3 C 77 % 1017,2 hPa 0,0 l/m 2,5 km/h (1 Bft) N-NO 32 1 min 0,000 mm 0,0 UV-I 139 W/m 2,5 C 6,2 C 4,8 km/h (1 Bft)
18.04.2024 18:54 6,1 C 8,3 C 76 % 1017,2 hPa 0,0 l/m 4,0 km/h (1 Bft) N-NO 22 1 min 0,000 mm 0,0 UV-I 135 W/m 2,2 C 6,1 C 4,8 km/h (1 Bft)
18.04.2024 18:53 6,1 C 8,3 C 76 % 1017,2 hPa 0,0 l/m 3,1 km/h (1 Bft) N-NO 22 1 min 0,000 mm 0,0 UV-I 146 W/m 2,2 C 6,1 C 6,4 km/h (2 Bft)
18.04.2024 18:52 6,2 C 8,3 C 76 % 1017,2 hPa 0,0 l/m 2,7 km/h (1 Bft) N-NO 30 1 min 0,000 mm 0,0 UV-I 148 W/m 2,3 C 6,2 C 4,8 km/h (1 Bft)
18.04.2024 18:51 6,2 C 8,3 C 77 % 1017,2 hPa 0,0 l/m 3,4 km/h (1 Bft) N-NO 30 0 min 0,000 mm 0,0 UV-I 51 W/m 2,5 C 6,2 C 4,8 km/h (1 Bft)
18.04.2024 18:50 6,2 C 8,3 C 77 % 1017,2 hPa 0,0 l/m 2,8 km/h (1 Bft) N 11 0 min 0,000 mm 0,0 UV-I 47 W/m 2,5 C 6,2 C 4,8 km/h (1 Bft)
18.04.2024 18:49 6,2 C 8,3 C 76 % 1017,1 hPa 0,0 l/m 3,0 km/h (1 Bft) N 11 0 min 0,000 mm 0,0 UV-I 91 W/m 2,3 C 6,2 C 4,8 km/h (1 Bft)
18.04.2024 18:48 6,2 C 8,9 C 77 % 1017,1 hPa 0,0 l/m 2,7 km/h (1 Bft) N 11 1 min 0,000 mm 0,0 UV-I 134 W/m 2,5 C 6,2 C 4,8 km/h (1 Bft)
18.04.2024 18:47 6,3 C 8,9 C 75 % 1017,1 hPa 0,0 l/m 4,4 km/h (1 Bft) N 355 0 min 0,000 mm 0,0 UV-I 84 W/m 2,2 C 6,3 C 6,4 km/h (2 Bft)
18.04.2024 18:46 6,3 C 8,9 C 75 % 1017,1 hPa 0,0 l/m 5,5 km/h (2 Bft) N 349 0 min 0,000 mm 0,0 UV-I 79 W/m 2,2 C 5,4 C 8,0 km/h (2 Bft)
18.04.2024 18:45 6,4 C 8,9 C 75 % 1017,1 hPa 0,0 l/m 4,0 km/h (1 Bft) N-NO 31 0 min 0,000 mm 0,0 UV-I 105 W/m 2,3 C 6,4 C 8,0 km/h (2 Bft)
18.04.2024 18:44 6,4 C 8,9 C 74 % 1017,1 hPa 0,0 l/m 3,1 km/h (1 Bft) NO 44 0 min 0,000 mm 0,0 UV-I 58 W/m 2,1 C 6,4 C 4,8 km/h (1 Bft)
18.04.2024 18:43 6,5 C 8,9 C 75 % 1017,1 hPa 0,0 l/m 4,5 km/h (1 Bft) NO 40 0 min 0,000 mm 0,0 UV-I 63 W/m 2,4 C 6,5 C 8,0 km/h (2 Bft)
18.04.2024 18:42 6,6 C 9,4 C 74 % 1017,2 hPa 0,0 l/m 3,7 km/h (1 Bft) N-NO 32 0 min 0,000 mm 0,0 UV-I 63 W/m 2,3 C 6,6 C 6,4 km/h (2 Bft)
18.04.2024 18:41 6,7 C 9,4 C 74 % 1017,1 hPa 0,0 l/m 4,3 km/h (1 Bft) N 355 0 min 0,000 mm 0,0 UV-I 65 W/m 2,4 C 6,7 C 6,4 km/h (2 Bft)
18.04.2024 18:40 6,7 C 9,4 C 74 % 1017,1 hPa 0,0 l/m 6,3 km/h (2 Bft) N 5 1 min 0,000 mm 0,0 UV-I 188 W/m 2,4 C 5,6 C 8,0 km/h (2 Bft)
18.04.2024 18:39 6,7 C 9,4 C 75 % 1017,2 hPa 0,0 l/m 6,2 km/h (2 Bft) N-NO 13 1 min 0,000 mm 0,0 UV-I 188 W/m 2,6 C 5,6 C 8,0 km/h (2 Bft)
18.04.2024 18:38 6,6 C 9,4 C 76 % 1017,2 hPa 0,0 l/m 5,8 km/h (2 Bft) N 5 1 min 0,000 mm 0,0 UV-I 197 W/m 2,7 C 5,6 C 8,0 km/h (2 Bft)
18.04.2024 18:37 6,6 C 9,4 C 76 % 1017,1 hPa 0,0 l/m 3,5 km/h (1 Bft) N 5 1 min 0,000 mm 0,0 UV-I 195 W/m 2,7 C 6,6 C 4,8 km/h (1 Bft)
18.04.2024 18:36 6,6 C 9,4 C 75 % 1017,1 hPa 0,0 l/m 4,5 km/h (1 Bft) N 5 1 min 0,000 mm 0,0 UV-I 202 W/m 2,5 C 6,6 C 6,4 km/h (2 Bft)
18.04.2024 18:35 6,6 C 9,4 C 75 % 1017,1 hPa 0,0 l/m 4,8 km/h (1 Bft) N 5 1 min 0,000 mm 0,0 UV-I 204 W/m 2,5 C 6,0 C 6,4 km/h (2 Bft)
18.04.2024 18:34 6,6 C 9,4 C 75 % 1017,1 hPa 0,0 l/m 3,2 km/h (1 Bft) N-NO 26 0 min 0,000 mm 0,0 UV-I 111 W/m 2,5 C 6,6 C 4,8 km/h (1 Bft)
18.04.2024 18:33 6,6 C 10,0 C 75 % 1017,1 hPa 0,0 l/m 5,4 km/h (2 Bft) N-NO 24 0 min 0,000 mm 0,0 UV-I 69 W/m 2,5 C 5,8 C 6,4 km/h (2 Bft)
18.04.2024 18:32 6,7 C 10,0 C 75 % 1017,1 hPa 0,0 l/m 6,0 km/h (2 Bft) N-NO 33 0 min 0,000 mm 0,0 UV-I 76 W/m 2,6 C 5,7 C 8,0 km/h (2 Bft)
18.04.2024 18:31 6,7 C 10,0 C 75 % 1017,0 hPa 0,0 l/m 4,5 km/h (1 Bft) O-NO 59 1 min 0,000 mm 0,0 UV-I 144 W/m 2,6 C 6,7 C 6,4 km/h (2 Bft)
18.04.2024 18:30 6,8 C 10,0 C 75 % 1017,0 hPa 0,0 l/m 5,4 km/h (2 Bft) O-NO 63 1 min 0,000 mm 0,0 UV-I 229 W/m 2,7 C 6,0 C 8,0 km/h (2 Bft)
18.04.2024 18:29 6,8 C 10,0 C 76 % 1017,0 hPa 0,0 l/m 4,8 km/h (1 Bft) N-NO 33 1 min 0,000 mm 0,0 UV-I 188 W/m 2,9 C 6,2 C 6,4 km/h (2 Bft)
18.04.2024 18:28 6,8 C 10,0 C 75 % 1017,0 hPa 0,0 l/m 4,8 km/h (1 Bft) O-NO 61 1 min 0,000 mm 0,0 UV-I 188 W/m 2,7 C 6,2 C 6,4 km/h (2 Bft)
18.04.2024 18:27 6,8 C 10,0 C 74 % 1016,9 hPa 0,0 l/m 5,4 km/h (2 Bft) NO 49 1 min 0,000 mm 0,5 UV-I 216 W/m 2,5 C 6,0 C 8,0 km/h (2 Bft)
18.04.2024 18:26 6,8 C 10,0 C 75 % 1017,0 hPa 0,0 l/m 4,9 km/h (1 Bft) NO 43 1 min 0,000 mm 0,5 UV-I 255 W/m 2,7 C 6,2 C 6,4 km/h (2 Bft)
18.04.2024 18:25 6,8 C 10,0 C 74 % 1016,9 hPa 0,0 l/m 1,9 km/h (1 Bft) NO 43 1 min 0,000 mm 0,5 UV-I 257 W/m 2,5 C 6,8 C 4,8 km/h (1 Bft)
18.04.2024 18:24 6,8 C 10,0 C 75 % 1016,8 hPa 0,0 l/m 4,1 km/h (1 Bft) NO 40 1 min 0,000 mm 0,5 UV-I 260 W/m 2,7 C 6,8 C 6,4 km/h (2 Bft)
18.04.2024 18:23 6,8 C 10,0 C 75 % 1016,8 hPa 0,0 l/m 3,5 km/h (1 Bft) NO 55 1 min 0,000 mm 0,5 UV-I 269 W/m 2,7 C 6,8 C 4,8 km/h (1 Bft)
18.04.2024 18:22 6,8 C 10,0 C 75 % 1016,8 hPa 0,0 l/m 5,8 km/h (2 Bft) N-NO 19 1 min 0,000 mm 0,5 UV-I 279 W/m 2,7 C 5,9 C 8,0 km/h (2 Bft)
18.04.2024 18:21 6,8 C 10,0 C 76 % 1016,8 hPa 0,0 l/m 4,9 km/h (1 Bft) N 5 1 min 0,000 mm 0,5 UV-I 288 W/m 2,9 C 6,2 C 8,0 km/h (2 Bft)
18.04.2024 18:20 6,7 C 10,0 C 76 % 1016,8 hPa 0,0 l/m 3,1 km/h (1 Bft) O-NO 73 0 min 0,000 mm 0,6 UV-I 125 W/m 2,8 C 6,7 C 4,8 km/h (1 Bft)
18.04.2024 18:19 6,8 C 10,0 C 77 % 1016,8 hPa 0,0 l/m 3,9 km/h (1 Bft) O-NO 75 0 min 0,000 mm 0,5 UV-I 125 W/m 3,1 C 6,8 C 6,4 km/h (2 Bft)
18.04.2024 18:18 6,8 C 10,0 C 75 % 1016,7 hPa 0,0 l/m 6,0 km/h (2 Bft) O-NO 76 0 min 0,000 mm 0,5 UV-I 127 W/m 2,7 C 5,8 C 8,0 km/h (2 Bft)
18.04.2024 18:17 6,8 C 10,0 C 75 % 1016,7 hPa 0,0 l/m 6,3 km/h (2 Bft) O-NO 76 1 min 0,000 mm 0,5 UV-I 311 W/m 2,7 C 5,7 C 8,0 km/h (2 Bft)
18.04.2024 18:16 6,8 C 10,0 C 75 % 1016,8 hPa 0,0 l/m 6,5 km/h (2 Bft) NO 55 1 min 0,000 mm 0,6 UV-I 311 W/m 2,7 C 5,6 C 8,0 km/h (2 Bft)
18.04.2024 18:15 6,8 C 10,0 C 75 % 1016,8 hPa 0,0 l/m 5,8 km/h (2 Bft) O-NO 61 1 min 0,000 mm 0,6 UV-I 313 W/m 2,7 C 5,9 C 9,7 km/h (2 Bft)
18.04.2024 18:14 6,7 C 10,0 C 75 % 1016,8 hPa 0,0 l/m 7,2 km/h (2 Bft) NO 44 1 min 0,000 mm 0,6 UV-I 313 W/m 2,6 C 5,3 C 11,3 km/h (2 Bft)
18.04.2024 18:13 6,6 C 10,0 C 74 % 1016,8 hPa 0,0 l/m 9,1 km/h (2 Bft) O-NO 63 1 min 0,000 mm 0,6 UV-I 301 W/m 2,3 C 4,8 C 11,3 km/h (2 Bft)
18.04.2024 18:12 6,7 C 10,0 C 75 % 1016,8 hPa 0,0 l/m 5,8 km/h (2 Bft) O-NO 69 1 min 0,000 mm 0,6 UV-I 297 W/m 2,6 C 5,7 C 9,7 km/h (2 Bft)
18.04.2024 18:11 6,7 C 9,4 C 75 % 1016,8 hPa 0,0 l/m 7,2 km/h (2 Bft) NO 38 1 min 0,000 mm 0,6 UV-I 297 W/m 2,6 C 5,3 C 9,7 km/h (2 Bft)
18.04.2024 18:10 6,7 C 10,0 C 74 % 1016,8 hPa 0,0 l/m 6,6 km/h (2 Bft) NO 47 1 min 0,000 mm 0,6 UV-I 297 W/m 2,4 C 5,5 C 9,7 km/h (2 Bft)
18.04.2024 18:09 6,7 C 10,0 C 74 % 1016,7 hPa 0,0 l/m 9,3 km/h (2 Bft) NO 51 1 min 0,000 mm 0,6 UV-I 292 W/m 2,4 C 4,8 C 12,9 km/h (3 Bft)
18.04.2024 18:08 6,7 C 10,0 C 74 % 1016,7 hPa 0,0 l/m 9,5 km/h (2 Bft) O-NO 69 1 min 0,000 mm 0,7 UV-I 288 W/m 2,4 C 4,8 C 12,9 km/h (3 Bft)
18.04.2024 18:07 6,7 C 9,4 C 74 % 1016,8 hPa 0,0 l/m 8,6 km/h (2 Bft) NO 47 1 min 0,000 mm 0,7 UV-I 260 W/m 2,4 C 5,0 C 11,3 km/h (2 Bft)
18.04.2024 18:06 6,7 C 9,4 C 74 % 1016,7 hPa 0,0 l/m 7,2 km/h (2 Bft) NO 55 1 min 0,000 mm 0,6 UV-I 223 W/m 2,4 C 5,3 C 9,7 km/h (2 Bft)
18.04.2024 18:05 6,7 C 9,4 C 74 % 1016,7 hPa 0,0 l/m 4,2 km/h (1 Bft) NO 46 1 min 0,000 mm 0,7 UV-I 285 W/m 2,4 C 6,7 C 6,4 km/h (2 Bft)
18.04.2024 18:04 6,6 C 9,4 C 74 % 1016,6 hPa 0,0 l/m 6,2 km/h (2 Bft) NO 36 1 min 0,000 mm 0,7 UV-I 276 W/m 2,3 C 5,5 C 8,0 km/h (2 Bft)
18.04.2024 18:03 6,7 C 9,4 C 75 % 1016,6 hPa 0,0 l/m 6,1 km/h (2 Bft) NO 35 1 min 0,000 mm 0,7 UV-I 274 W/m 2,6 C 5,6 C 8,0 km/h (2 Bft)
18.04.2024 18:02 6,6 C 9,4 C 74 % 1016,6 hPa 0,0 l/m 7,8 km/h (2 Bft) NO 39 1 min 0,000 mm 0,7 UV-I 276 W/m 2,3 C 5,1 C 9,7 km/h (2 Bft)
18.04.2024 18:01 6,6 C 9,4 C 74 % 1016,6 hPa 0,0 l/m 7,2 km/h (2 Bft) NO 45 1 min 0,178 mm 0,7 UV-I 288 W/m 2,3 C 5,2 C 9,7 km/h (2 Bft)
18.04.2024 18:00 6,6 C 9,4 C 74 % 1016,6 hPa 0,0 l/m 4,8 km/h (1 Bft) NO 51 1 min 0,000 mm 0,7 UV-I 294 W/m 2,3 C 6,0 C 9,7 km/h (2 Bft)
_ Min-Zeit 11:14 05:17 13:53 20:01 - 22:49 - - - - - - 11:09 14:27 22:49
Minimum _ 0,8 C 1,1 C 70 % 1009,4 hPa - 0,0 km/h (0 Bft) - - - - - - -0,4 C -2,7 C 0,0 km/h (0 Bft)
_ Max-Zeit 13:50 13:51 11:21 19:36 00:24 13:57 - - 07:05 14:00 13:48 13:20 13:48 13:45 13:59
Maximum _ 8,1 C 11,7 C 92 % 1017,6 hPa 0,2 l/m 28,4 km/h
N-NO (5 Bft)
- - 1 min 0,279 mm 4,7 UV-I 1102 W/m 4,7 C 7,3 C 40,2 km/h
N-NW (6 Bft)
Durchschnitt _ 3,3 C 3,8 C 86 % 1013,0 hPa #7,0 l/m 5,5 km/h (2 Bft) N-NO - #4:03 h #1,346 mm 1,4 UV-I 239 W/m 1,2 C 2,3 C 7,7 km/h (2 Bft)
Wetterstation Eggerszell